| time (UTC) | temp F | wind direction | speed knots | gust knots | rain 1hr in | rain 24hr in | rain mn in | humidity % | barometer mb |
| 20260504050004 | 33 | 124 | 0.0 | 4.3 | 0.00 | 0.00 | 0.00 | 89 | 995.0 |
| 20260504045503 | 33 | 129 | 1.7 | 5.2 | 0.00 | 0.00 | 0.00 | 89 | 995.2 |
| 20260504045004 | 33 | 172 | 0.0 | 0.0 | 0.00 | 0.00 | 0.00 | 89 | 995.4 |
| 20260504044504 | 33 | 172 | 0.0 | 0.0 | 0.00 | 0.00 | 0.00 | 89 | 995.6 |
| 20260504043504 | 33 | 172 | 0.0 | 0.0 | 0.00 | 0.00 | 0.00 | 89 | 995.8 |
| 20260504043004 | 33 | 172 | 0.0 | 0.0 | 0.00 | 0.00 | 0.00 | 88 | 995.9 |
| 20260504042504 | 33 | 172 | 0.0 | 0.0 | 0.00 | 0.00 | 0.00 | 88 | 996.1 |
| 20260504042003 | 34 | 172 | 0.0 | 0.0 | 0.00 | 0.00 | 0.00 | 87 | 996.1 |
| 20260504041503 | 34 | 172 | 0.0 | 0.0 | 0.00 | 0.00 | 0.00 | 87 | 996.0 |
| 20260504041003 | 34 | 172 | 0.0 | 0.0 | 0.00 | 0.00 | 0.00 | 86 | 996.1 |
| 20260504040504 | 34 | 172 | 0.0 | 0.0 | 0.00 | 0.00 | 0.00 | 85 | 996.1 |
| 20260504040004 | 35 | 172 | 0.0 | 5.2 | 0.00 | 0.00 | 0.00 | 83 | 996.2 |
| 20260504035504 | 35 | 149 | 0.9 | 7.8 | 0.00 | 0.00 | 0.00 | 82 | 996.1 |
| 20260504035004 | 35 | 156 | 2.6 | 7.0 | 0.00 | 0.00 | 0.00 | 80 | 996.2 |
| 20260504034503 | 35 | 149 | 0.9 | 6.1 | 0.00 | 0.00 | 0.00 | 79 | 996.3 |
| 20260504034004 | 35 | 149 | 0.0 | 6.1 | 0.00 | 0.00 | 0.00 | 79 | 996.3 |
| 20260504033503 | 35 | 157 | 3.5 | 6.1 | 0.00 | 0.00 | 0.00 | 79 | 996.4 |
| 20260504032503 | 35 | 175 | 0.9 | 6.1 | 0.00 | 0.00 | 0.00 | 78 | 996.6 |
| 20260504032003 | 35 | 169 | 1.7 | 10.4 | 0.00 | 0.00 | 0.00 | 78 | 996.7 |
| 20260504031003 | 35 | 179 | 0.9 | 7.8 | 0.00 | 0.00 | 0.00 | 78 | 996.7 |
| 20260504030503 | 35 | 168 | 2.6 | 10.4 | 0.00 | 0.00 | 0.00 | 77 | 996.8 |
| 20260504030004 | 35 | 146 | 0.9 | 7.0 | 0.00 | 0.00 | 0.00 | 75 | 996.9 |
| 20260504025504 | 35 | 172 | 0.9 | 7.8 | 0.00 | 0.00 | 0.00 | 74 | 997.0 |
| 20260504025003 | 35 | 155 | 0.9 | 7.0 | 0.00 | 0.00 | 0.00 | 73 | 997.0 |
| 20260504023503 | 34 | 126 | 0.0 | 0.0 | 0.00 | 0.00 | 0.00 | 72 | 997.2 |
| 20260504023005 | 34 | 125 | 0.0 | 0.0 | 0.00 | 0.00 | 0.00 | 74 | 997.3 |
| 20260504022503 | 33 | 183 | 0.9 | 5.2 | 0.00 | 0.00 | 0.00 | 74 | 997.3 |
| 20260504022004 | 33 | 132 | 0.0 | 2.6 | 0.00 | 0.00 | 0.00 | 73 | 997.4 |
| 20260504021505 | 33 | 167 | 0.0 | 0.9 | 0.00 | 0.00 | 0.00 | 74 | 997.5 |
| 20260504020503 | 32 | 184 | 0.0 | 0.0 | 0.00 | 0.00 | 0.00 | 74 | 997.6 |
| 20260504020004 | 32 | 184 | 0.0 | 0.0 | 0.00 | 0.00 | 0.00 | 74 | 997.7 |
| 20260504015504 | 31 | 184 | 0.0 | 0.0 | 0.00 | 0.00 | 0.00 | 74 | 997.7 |
| 20260504015004 | 31 | 184 | 0.0 | 0.0 | 0.00 | 0.00 | 0.00 | 74 | 997.8 |
| 20260504014505 | 31 | 184 | 0.0 | 0.0 | 0.00 | 0.00 | 0.00 | 75 | 997.8 |
| 20260504014004 | 31 | 184 | 0.0 | 0.0 | 0.00 | 0.00 | 0.00 | 75 | 997.8 |
| 20260504013503 | 31 | 184 | 0.0 | 0.0 | 0.00 | 0.00 | 0.00 | 75 | 997.9 |
| 20260504013004 | 30 | 184 | 0.0 | 0.0 | 0.00 | 0.00 | 0.00 | 76 | 998.0 |
| 20260504012504 | 30 | 184 | 0.0 | 0.0 | 0.00 | 0.00 | 0.00 | 76 | 998.0 |
| 20260504012003 | 29 | 184 | 0.0 | 0.0 | 0.00 | 0.00 | 0.00 | 77 | 998.1 |
| 20260504011503 | 29 | 202 | 0.0 | 0.0 | 0.00 | 0.00 | 0.00 | 77 | 998.2 |
| 20260504011003 | 29 | 240 | 0.0 | 0.0 | 0.00 | 0.00 | 0.00 | 77 | 998.3 |
| 20260504010503 | 29 | 240 | 0.0 | 0.0 | 0.00 | 0.00 | 0.00 | 77 | 998.3 |
| 20260504010004 | 29 | 240 | 0.0 | 0.0 | 0.00 | 0.00 | 0.00 | 77 | 998.3 |
| 20260504004503 | 29 | 240 | 0.0 | 0.0 | 0.00 | 0.00 | 0.00 | 78 | 998.5 |
| 20260504003504 | 28 | 240 | 0.0 | 0.0 | 0.00 | 0.00 | 0.00 | 79 | 998.5 |
| 20260504003003 | 27 | 240 | 0.0 | 0.0 | 0.00 | 0.00 | 0.00 | 80 | 998.5 |
| 20260504002504 | 27 | 240 | 0.0 | 0.0 | 0.00 | 0.00 | 0.00 | 81 | 998.6 |
| 20260504002003 | 27 | 240 | 0.0 | 0.0 | 0.00 | 0.00 | 0.00 | 80 | 998.7 |
| 20260504001504 | 27 | 240 | 0.0 | 0.0 | 0.00 | 0.00 | 0.00 | 79 | 998.7 |
| 20260504001003 | 27 | 240 | 0.0 | 0.0 | 0.00 | 0.00 | 0.00 | 79 | 998.7 |
| 20260504000503 | 28 | 240 | 0.0 | 0.0 | 0.00 | 0.00 | 0.00 | 78 | 998.8 |
| 20260504000006 | 28 | 240 | 0.0 | 0.0 | 0.00 | 0.00 | 0.00 | 78 | 998.8 |
| 20260503235504 | 28 | 240 | 0.0 | 0.0 | 0.00 | 0.00 | 0.00 | 78 | 998.8 |
| 20260503235005 | 28 | 240 | 0.0 | 0.0 | 0.00 | 0.00 | 0.00 | 78 | 998.9 |
| 20260503234504 | 28 | 240 | 0.0 | 0.0 | 0.00 | 0.00 | 0.00 | 78 | 999.0 |
| 20260503234004 | 28 | 240 | 0.0 | 0.0 | 0.00 | 0.00 | 0.00 | 79 | 999.0 |
| 20260503233505 | 28 | 240 | 0.0 | 0.0 | 0.00 | 0.00 | 0.00 | 80 | 999.1 |
| 20260503233005 | 28 | 240 | 0.0 | 0.0 | 0.00 | 0.00 | 0.00 | 80 | 999.2 |
| 20260503232505 | 28 | 240 | 0.0 | 0.0 | 0.00 | 0.00 | 0.00 | 80 | 999.2 |
| 20260503232004 | 28 | 240 | 0.0 | 0.0 | 0.00 | 0.00 | 0.00 | 80 | 999.3 |
| 20260503231503 | 28 | 240 | 0.0 | 0.0 | 0.00 | 0.00 | 0.00 | 80 | 999.2 |
| 20260503231003 | 28 | 240 | 0.0 | 0.0 | 0.00 | 0.00 | 0.00 | 80 | 999.3 |
| 20260503230503 | 28 | 240 | 0.0 | 0.0 | 0.00 | 0.00 | 0.00 | 80 | 999.4 |
| 20260503230004 | 28 | 240 | 0.0 | 0.0 | 0.00 | 0.00 | 0.00 | 79 | 999.3 |
| 20260503225504 | 28 | 240 | 0.0 | 0.0 | 0.00 | 0.00 | 0.00 | 79 | 999.3 |
| 20260503225003 | 28 | 240 | 0.0 | 0.0 | 0.00 | 0.00 | 0.00 | 79 | 999.4 |
| 20260503224503 | 28 | 240 | 0.0 | 0.0 | 0.00 | 0.00 | 0.00 | 80 | 999.4 |
| 20260503224004 | 28 | 240 | 0.0 | 0.0 | 0.00 | 0.00 | 0.00 | 80 | 999.5 |
| 20260503223503 | 29 | 240 | 0.0 | 0.0 | 0.00 | 0.00 | 0.00 | 79 | 999.5 |
| 20260503223003 | 29 | 240 | 0.0 | 0.0 | 0.00 | 0.00 | 0.00 | 79 | 999.6 |
| 20260503222504 | 29 | 240 | 0.0 | 0.0 | 0.00 | 0.00 | 0.00 | 79 | 999.6 |
| 20260503222003 | 29 | 240 | 0.0 | 0.0 | 0.00 | 0.00 | 0.00 | 79 | 999.7 |
| 20260503221503 | 29 | 240 | 0.0 | 0.0 | 0.00 | 0.00 | 0.00 | 79 | 999.6 |
| 20260503221004 | 29 | 240 | 0.0 | 0.0 | 0.00 | 0.00 | 0.00 | 79 | 999.7 |
| 20260503220504 | 29 | 240 | 0.0 | 0.0 | 0.00 | 0.00 | 0.00 | 78 | 999.7 |
| 20260503220003 | 29 | 240 | 0.0 | 0.0 | 0.00 | 0.00 | 0.00 | 78 | 999.8 |
| 20260503215504 | 29 | 240 | 0.0 | 0.0 | 0.00 | 0.00 | 0.00 | 78 | 999.8 |
| 20260503215003 | 29 | 240 | 0.0 | 0.0 | 0.00 | 0.00 | 0.00 | 79 | 999.9 |
| 20260503214503 | 29 | 240 | 0.0 | 0.0 | 0.00 | 0.00 | 0.00 | 78 | 999.9 |
| 20260503214003 | 29 | 240 | 0.0 | 0.0 | 0.00 | 0.00 | 0.00 | 78 | 1000.0 |
| 20260503213503 | 29 | 240 | 0.0 | 0.0 | 0.00 | 0.00 | 0.00 | 79 | 1000.0 |
| 20260503213003 | 29 | 240 | 0.0 | 0.0 | 0.00 | 0.00 | 0.00 | 79 | 1000.1 |
| 20260503212004 | 29 | 240 | 0.0 | 0.0 | 0.00 | 0.00 | 0.00 | 78 | 1000.2 |
| 20260503211504 | 29 | 240 | 0.0 | 0.0 | 0.00 | 0.00 | 0.00 | 77 | 1000.2 |
| 20260503211003 | 29 | 240 | 0.0 | 0.0 | 0.00 | 0.00 | 0.00 | 78 | 1000.3 |
| 20260503210004 | 29 | 240 | 0.0 | 0.0 | 0.00 | 0.00 | 0.00 | 78 | 1000.4 |
| 20260503205504 | 29 | 240 | 0.0 | 0.0 | 0.00 | 0.00 | 0.00 | 77 | 1000.4 |
| 20260503205004 | 29 | 240 | 0.0 | 0.0 | 0.00 | 0.00 | 0.00 | 77 | 1000.5 |
| 20260503204504 | 29 | 240 | 0.0 | 0.0 | 0.00 | 0.00 | 0.00 | 77 | 1000.6 |
| 20260503204004 | 29 | 240 | 0.0 | 0.0 | 0.00 | 0.00 | 0.00 | 79 | 1000.6 |
| 20260503203504 | 29 | 240 | 0.0 | 0.0 | 0.00 | 0.00 | 0.00 | 78 | 1000.7 |
| 20260503202503 | 28 | 240 | 0.0 | 0.0 | 0.00 | 0.00 | 0.00 | 76 | 1000.7 |
| 20260503202004 | 28 | 240 | 0.0 | 0.0 | 0.00 | 0.00 | 0.00 | 75 | 1000.7 |
| 20260503201504 | 28 | 240 | 0.0 | 0.0 | 0.00 | 0.00 | 0.00 | 75 | 1000.8 |
| 20260503201004 | 29 | 240 | 0.0 | 0.0 | 0.00 | 0.00 | 0.00 | 75 | 1000.8 |
| 20260503200504 | 29 | 240 | 0.0 | 0.0 | 0.00 | 0.00 | 0.00 | 75 | 1000.9 |
| 20260503200004 | 29 | 240 | 0.0 | 0.0 | 0.00 | 0.00 | 0.00 | 75 | 1000.9 |
| 20260503195503 | 29 | 240 | 0.0 | 0.0 | 0.00 | 0.00 | 0.00 | 74 | 1001.0 |
| 20260503195003 | 29 | 240 | 0.0 | 0.0 | 0.00 | 0.00 | 0.00 | 73 | 1000.9 |
| 20260503194504 | 29 | 240 | 0.0 | 0.0 | 0.00 | 0.00 | 0.00 | 73 | 1000.9 |
| 20260503194004 | 29 | 240 | 0.0 | 0.0 | 0.00 | 0.00 | 0.00 | 73 | 1000.9 |
| 20260503193503 | 30 | 240 | 0.0 | 0.0 | 0.00 | 0.00 | 0.00 | 73 | 1000.9 |
| 20260503193003 | 30 | 240 | 0.0 | 0.0 | 0.00 | 0.00 | 0.00 | 71 | 1000.9 |
| 20260503192504 | 30 | 240 | 0.0 | 0.0 | 0.00 | 0.00 | 0.00 | 71 | 1000.9 |
| 20260503192004 | 30 | 240 | 0.0 | 0.0 | 0.00 | 0.00 | 0.00 | 70 | 1000.9 |
| 20260503191504 | 31 | 240 | 0.0 | 0.0 | 0.00 | 0.00 | 0.00 | 70 | 1000.9 |
| 20260503191003 | 31 | 240 | 0.0 | 0.0 | 0.00 | 0.00 | 0.00 | 69 | 1000.9 |
| 20260503190504 | 31 | 240 | 0.0 | 0.0 | 0.00 | 0.00 | 0.00 | 68 | 1000.8 |
| 20260503190004 | 32 | 240 | 0.0 | 0.0 | 0.00 | 0.00 | 0.00 | 67 | 1000.8 |
| 20260503185503 | 32 | 240 | 0.0 | 0.0 | 0.00 | 0.00 | 0.00 | 66 | 1000.8 |
| 20260503185004 | 33 | 240 | 0.0 | 0.0 | 0.00 | 0.00 | 0.00 | 65 | 1000.8 |
| 20260503184503 | 33 | 240 | 0.0 | 0.0 | 0.00 | 0.00 | 0.00 | 64 | 1000.9 |
| 20260503184004 | 34 | 240 | 0.0 | 0.0 | 0.00 | 0.00 | 0.00 | 63 | 1000.9 |
| 20260503183503 | 34 | 240 | 0.0 | 0.0 | 0.00 | 0.00 | 0.00 | 61 | 1000.9 |
| 20260503183004 | 35 | 240 | 0.0 | 0.0 | 0.00 | 0.00 | 0.00 | 60 | 1000.8 |
| 20260503182503 | 36 | 240 | 0.0 | 0.0 | 0.00 | 0.00 | 0.00 | 59 | 1000.8 |
| 20260503182005 | 36 | 240 | 0.0 | 0.0 | 0.00 | 0.00 | 0.00 | 57 | 1000.8 |
| 20260503181004 | 38 | 240 | 0.0 | 0.0 | 0.00 | 0.00 | 0.00 | 53 | 1000.9 |
| 20260503175503 | 40 | 240 | 0.0 | 0.0 | 0.00 | 0.00 | 0.00 | 47 | 1000.9 |
| 20260503175004 | 40 | 240 | 0.0 | 0.0 | 0.00 | 0.00 | 0.00 | 45 | 1000.9 |
| 20260503174504 | 41 | 240 | 0.0 | 0.0 | 0.00 | 0.00 | 0.00 | 44 | 1001.0 |
| 20260503174004 | 41 | 240 | 0.0 | 0.0 | 0.00 | 0.00 | 0.00 | 43 | 1001.0 |
| 20260503173504 | 41 | 297 | 0.0 | 0.9 | 0.00 | 0.00 | 0.00 | 43 | 1001.0 |
| 20260503172504 | 42 | 292 | 0.9 | 2.6 | 0.00 | 0.00 | 0.00 | 41 | 1001.0 |
| 20260503172004 | 42 | 241 | 0.0 | 2.6 | 0.00 | 0.00 | 0.00 | 41 | 1001.0 |
| 20260503171503 | 42 | 290 | 0.0 | 0.0 | 0.00 | 0.00 | 0.00 | 41 | 1001.1 |
| 20260503171003 | 42 | 285 | 0.0 | 0.0 | 0.00 | 0.00 | 0.00 | 41 | 1001.1 |
| 20260503170503 | 42 | 272 | 0.0 | 6.1 | 0.00 | 0.00 | 0.00 | 41 | 1001.0 |
| 20260503151003 | 42 | 273 | 0.0 | 0.0 | 0.00 | 0.00 | 0.00 | 40 | 1001.5 |
| 20260503150504 | 42 | 296 | 0.0 | 0.0 | 0.00 | 0.00 | 0.00 | 41 | 1001.6 |
| 20260503131004 | 42 | 253 | 0.9 | 7.0 | 0.00 | 0.00 | 0.00 | 41 | 1002.2 |
| 20260503130503 | 43 | 276 | 4.3 | 10.4 | 0.00 | 0.00 | 0.00 | 43 | 1002.3 |
| 20260503110504 | 42 | 276 | 2.6 | 7.0 | 0.00 | 0.00 | 0.00 | 42 | 1002.3 |
| 20260503090505 | 41 | 310 | 4.3 | 10.4 | 0.00 | 0.00 | 0.00 | 46 | 1002.6 |
| 20260503081503 | 40 | 280 | 5.2 | 11.3 | 0.00 | 0.00 | 0.00 | 45 | 1002.7 |
| 20260503081004 | 40 | 275 | 5.2 | 10.4 | 0.00 | 0.00 | 0.00 | 45 | 1002.7 |
| 20260503080504 | 41 | 321 | 6.1 | 12.2 | 0.00 | 0.00 | 0.00 | 44 | 1002.5 |